Dewpoint
1 1 2 1 3 2 3 3 4 4 4 5 4 5 5 6 6 6 7 8 9 9 10 11 10 9 8 6 7 7 6 5 4 4 5 5 4 3 4 3 0 1 1 2 3 2 1 2 2 4 6 5 6 6 6 9 7 11 11 9 8 9 13
0 2 1 2 2 3 3 3 3 3 4 4 4 5 6 6 5 5 5 6 7 8 9 10 11 10 10 10 9 8 8 6 6 4 3 3 4 5 3 4 1 2 2 1 2 2 2 2 2 4 6 5 4 3 7 9 9 10 8 6 6 7 8
1 1 2 3 3 3 3 3 3 3 3 4 4 5 5 5 5 4 4 5 6 7 8 9 10 10 10 10 9 9 8 8 7 7 6 4 3 2 3 4 2 2 2 2 2 3 3 2 3 5 6 5 4 5 7 6 7 7 6 6 6 6 6
1 2 3 3 3 3 3 3 3 3 4 4 4 4 3 3 3 2 2 4 5 7 8 6 5 5 7 7 6 7 6 6 7 5 4 1 1 2 3 5 5 4 4 3 2 3 3 5 8 7 6 4 5 6 5 4 5 5 4 4 4 4 5
3 3 3 3 3 3 3 3 3 4 4 4 3 2 -0 -1 -1 -0 1 3 3 6 4 5 3 2 3 4 4 3 2 2 1 1 1 -0 -0 1 2 2 3 4 4 3 3 3 4 5 5 5 5 4 5 5 3 2 2 2 2 2 3 3 4
4 5 3 3 3 3 3 3 3 3 3 2 1 1 -0 -2 -2 -0 0 1 2 2 1 1 1 0 -0 -0 0 -0 -1 -1 -2 -3 -2 -2 -1 0 0 0 0 3 3 3 4 4 4 5 5 5 3 3 4 3 1 0 1 1 -0 0 0 2 3
2 3 3 2 2 2 2 2 2 1 1 0 -0 -2 -3 -2 -1 -0 0 1 2 2 2 1 1 0 0 0 -0 -1 -2 -2 -2 -2 -1 -1 -0 0 -0 1 1 2 3 4 5 6 8 8 7 5 2 2 3 1 0 -1 -1 -2 -1 -1 -0 0 2
1 1 2 1 1 2 2 1 1 0 -0 -2 -3 -3 -4 -2 -1 -0 -0 0 1 1 1 1 1 0 -0 -1 -1 -2 -2 -2 -1 -1 -1 1 2 2 3 1 1 2 4 5 5 4 4 1 -2 -1 -3 -2 -3 -2 -2 -4 -5 -4 -3 -2 -1 -0 -0
1 0 0 1 0 0 -0 -2 -2 -3 -3 -4 -3 -2 -1 0 1 1 1 1 2 3 4 4 3 2 1 3 5 6 7 6 7 6 5 7 7 7 6 4 3 4 4 5 6 5 4 3 3 -1 -5 -4 -6 -6 -4 -5 -6 -5 -3 -2 -2 -3 -2
0 -1 -2 -1 -2 -2 -3 -3 -4 2 4 5 4 3 4 5 6 6 6 6 6 7 6 5 4 5 6 5 5 5 5 4 5 6 7 6 6 6 6 6 6 6 4 0 -1 -0 0 -1 -3 -5 -6 -7 -8 -6 -6 -5 -7 -7 -4 -4 -6 -4 -7
-1 -2 -2 -2 -3 -4 -5 -4 -4 3 9 11 12 9 8 8 8 7 6 5 3 1 1 2 2 1 3 4 5 4 5 6 6 6 6 6 8 9 8 7 6 3 -0 -0 -1 -0 -2 -3 -4 -5 -7 -8 -6 -8 -7 -6 -9 -8 -8 -9 -9 -10 -7
-3 -4 -4 -4 -5 -6 -6 -5 2 8 10 11 12 11 8 7 7 7 6 6 5 5 6 6 6 6 5 3 3 2 3 6 8 9 8 8 7 7 8 10 7 5 0 -2 -1 -5 -5 -6 -7 -9 -11 -9 -9 -7 -8 -10 -10 -11 -10 -11 -11 -10 -10
-3 -5 -5 -5 -6 -7 -6 -6 2 7 9 11 12 12 9 7 7 7 7 7 7 5 5 5 4 4 4 5 6 7 5 1 2 6 8 8 7 7 8 9 9 9 7 5 3 -2 -6 -8 -9 -11 -8 -8 -9 -6 -8 -10 -9 -12 -12 -11 -10 -9 -8
-4 -5 -7 -7 -8 -7 -7 -6 -0 6 9 10 12 12 11 7 7 7 7 6 3 0 -0 -1 -1 0 0 1 0 0 -1 -5 -6 -5 -4 -3 -4 -6 1 6 6 6 6 6 3 -1 -2 -4 -9 -5 -9 -8 -2 -6 -8 -11 -12 -11 -13 -11 -10 -9 -9
-7 -8 -7 -8 -8 -8 -7 -7 2 8 9 10 12 12 11 7 6 5 2 -0 -2 -2 -2 -2 -2 -3 -3 -3 -4 -3 -1 -2 -3 -7 -5 -5 -5 -5 -4 -6 -4 -3 -6 -1 -4 -2 -4 -6 -8 -5 -5 -6 -5 -3 -5 -8 -9 -11 -12 -12 -15 -13 -12
-7 -8 -9 -8 -10 -10 -8 -8 4 8 9 10 11 11 6 6 5 1 -1 -1 -2 -2 -1 -1 -1 -1 -2 -2 -2 2 5 5 3 1 -2 -4 -4 -5 -7 -9 -0 7 9 4 -0 -3 -5 -7 -7 6 0 1 -1 -4 -10 -14 -18 -18 -19 -17 -14 -13 -12
-8 -8 -9 -9 -9 -9 -7 -7 -2 7 8 9 10 9 5 5 4 4 3 0 -1 -1 -1 -1 -1 -2 -2 -2 -0 3 5 7 4 3 3 2 0 -1 -5 -4 -7 6 11 11 10 9 8 8 8 9 9 9 8 -1 -9 -19 -16 -14 -24 -21 -18 -17 -18
-8 -8 -9 -9 -8 -8 -8 -7 -4 1 6 9 10 7 4 4 4 2 1 1 1 1 -0 -1 3 4 -0 -1 -2 4 7 7 5 4 3 2 -0 -2 -2 -2 -7 -11 -7 8 4 3 3 4 2 -1 -1 2 3 1 -9 -24 -21 -22 -25 -23 -23 -21 -19
-9 -9 -10 -10 -9 -3 -4 -6 -4 -1 6 8 9 6 4 4 3 2 1 1 1 -2 -3 -4 0 4 5 3 2 6 7 7 4 3 2 2 2 1 -2 -3 -8 -10 -11 -13 -15 -20 -18 -17 -14 -17 -19 -14 -12 -11 -12 -25 -25 -29 -26 -23 -23 -22 -22
-9 -10 -9 -9 -10 -8 -8 -8 -8 -6 6 8 9 10 5 4 4 2 -1 -5 -8 -5 -5 -4 -4 1 4 5 4 4 5 5 6 -1 -5 -4 -3 -3 -3 -8 -16 -15 -16 -17 -19 -22 -22 -22 -23 -28 -30 -29 -26 -22 -18 -23 -29 -30 -27 -27 -26 -25 -24
-11 -12 -10 -10 -9 -9 -9 -9 -9 -7 2 7 8 8 6 3 3 2 -2 -7 -7 -9 -5 -3 -6 -8 1 -0 0 2 5 6 7 5 -8 -9 -5 -4 -6 -9 -17 -12 -8 -23 -19 -19 -21 -24 -24 -27 -31 -28 -26 -24 -24 -24 -21 -27 -28 -27 -28 -29 -29
-12 -12 -11 -11 -10 -11 -10 -8 -5 -7 -4 1 7 7 7 3 3 2 -4 -13 -15 -10 -10 -10 -8 -8 -3 -1 -0 2 5 6 6 5 -3 -3 5 6 2 -17 -19 -22 -23 -22 -23 -23 -22 -25 -25 -27 -25 -23 -24 -26 -23 -27 -31 -29 -29 -27 -24 -24 -26
-14 -14 -13 -13 -11 -11 -11 -10 -8 -5 -5 -2 3 6 6 5 3 6 -3 -6 -11 -14 -11 -12 -11 -7 -3 -2 2 4 5 5 4 0 0 5 5 -3 -9 -12 -23 -17 -26 -23 -22 -22 -26 -27 -29 -27 -27 -28 -29 -32 -33 -31 -33 -35 -34 -29 -24 -23 -23
-15 -16 -15 -14 -12 -12 -12 -12 -11 -7 -4 -4 -1 3 5 6 5 5 -6 -9 -10 -14 -14 -14 -14 -11 -1 1 3 4 5 3 -4 -3 2 -0 -6 -8 -11 -17 -16 -20 -23 -19 -22 -25 -27 -27 -30 -31 -32 -30 -27 -28 -30 -30 -29 -29 -33 -32 -31 -27 -22
-13 -14 -14 -13 -12 -12 -12 -12 -12 -13 -8 -5 -3 0 1 2 4 1 -1 -10 -12 -10 -14 -5 -1 1 2 1 2 -0 -6 -7 -6 -7 -7 -8 -9 -11 -21 -20 -24 -25 -24 -27 -27 -26 -27 -29 -27 -28 -29 -28 -29 -23 -25 -26 -29 -29 -29 -30 -31 -29 -26
-13 -14 -14 -14 -13 -13 -13 -13 -16 -14 -14 -8 -6 -4 -2 -0 1 0 -2 -3 -8 -2 -2 -3 -1 -4 -5 -6 -9 -15 -16 -14 -14 -9 -11 -12 -14 -26 -23 -23 -24 -25 -25 -26 -27 -27 -26 -28 -29 -28 -29 -27 -25 -26 -28 -29 -28 -28 -24 -30 -30 -29 -25
-13 -13 -14 -14 -14 -15 -14 -16 -17 -14 -16 -12 -16 -15 -10 -8 -8 1 -1 -7 -9 -4 -9 -11 -10 -11 -8 -7 -9 -10 -9 -12 -13 -19 -24 -29 -27 -24 -24 -23 -27 -28 -27 -26 -29 -27 -28 -30 -32 -30 -24 -28 -28 -28 -29 -28 -24 -26 -27 -27 -27 -28 -28
-14 -13 -14 -14 -16 -16 -17 -16 -16 -16 -15 -12 -13 -12 -15 -15 -14 -12 -11 -13 -16 -19 -15 -18 -7 -13 -23 -22 -24 -26 -29 -30 -29 -25 -23 -29 -31 -30 -29 -18 -13 -16 -28 -30 -31 -33 -30 -26 -30 -31 -32 -29 -28 -30 -28 -26 -24 -25 -27 -25 -25 -28 -29
-12 -12 -16 -14 -14 -15 -15 -17 -15 -13 -7 -8 -6 -7 -12 -16 -14 -12 -14 -8 -9 -17 -20 -20 -22 -21 -21 -22 -22 -23 -27 -31 -32 -30 -28 -30 -34 -35 -37 -32 -32 -31 -33 -30 -27 -29 -29 -31 -32 -32 -30 -28 -29 -28 -27 -27 -27 -26 -27 -25 -28 -28 -27
-9 -11 -12 -12 -11 -12 -12 -12 -11 -6 -4 -2 -2 -1 -2 -2 -2 -5 -7 -6 -6 -12 -22 -24 -25 -27 -26 -27 -27 -27 -27 -28 -30 -32 -33 -34 -20 -25 -30 -29 -28 -29 -29 -26 -28 -29 -28 -30 -28 -31 -30 -28 -28 -29 -29 -25 -17 -26 -26 -26 -27 -28 -28
-0 -0 -1 -3 -5 -6 -5 -5 -4 -4 -1 -0 -0 -1 -1 -1 -1 1 -1 -3 -7 -17 -18 -23 -25 -26 -29 -27 -30 -28 -28 -28 -29 -29 -31 -33 -33 -32 -29 -25 -30 -31 -26 -26 -28 -28 -28 -27 -30 -30 -28 -28 -28 -28 -28 -29 -26 -26 -27 -27 -26 -28 -29
-0 -1 -2 -2 -3 -4 -6 -2 -1 -1 0 1 1 -1 -1 -0 -0 0 2 -1 -5 -12 -15 -19 -20 -25 -27 -30 -30 -28 -29 -31 -32 -31 -31 -33 -32 -31 -30 -29 -31 -29 -33 -30 -30 -30 -28 -30 -30 -29 -28 -28 -28 -25 -29 -30 -29 -28 -28 -28 -28 -26 -25
-2 -2 -3 -3 -3 -2 -2 -3 -4 -3 -1 -0 0 0 -1 -0 0 -1 0 0 -6 -12 -13 -20 -21 -21 -25 -29 -28 -29 -31 -31 -33 -32 -33 -33 -32 -32 -32 -31 -31 -26 -32 -29 -33 -32 -33 -31 -30 -29 -28 -26 -28 -29 -31 -29 -29 -30 -29 -28 -29 -27 -26
-5 -5 -5 -5 -5 -6 -5 -5 -4 -4 -3 -1 1 2 -0 0 -3 -0 -1 -5 -11 -13 -14 -18 -21 -24 -25 -26 -29 -31 -33 -32 -33 -33 -33 -33 -33 -33 -35 -34 -36 -32 -31 -30 -30 -32 -32 -30 -32 -29 -32 -34 -34 -31 -30 -30 -29 -31 -30 -30 -29 -29 -28
-14 -10 -8 -9 -8 -7 -8 -7 -7 -6 -5 -4 -3 -2 0 0 -6 -8 -11 -17 -19 -16 -16 -19 -20 -22 -23 -26 -28 -29 -31 -29 -33 -34 -33 -31 -32 -35 -37 -36 -34 -33 -34 -33 -36 -36 -35 -32 -31 -35 -30 -31 -33 -33 -32 -31 -31 -31 -30 -30 -30 -29 -29
-13 -16 -11 -10 -9 -9 -8 -7 -7 -7 -7 -6 -4 -3 -3 -7 -9 -13 -16 -17 -20 -20 -18 -19 -19 -20 -21 -25 -26 -30 -31 -31 -31 -32 -29 -33 -33 -33 -34 -34 -35 -32 -33 -34 -38 -36 -35 -30 -34 -33 -35 -40 -36 -34 -33 -33 -31 -31 -29 -28 -29 -28 -29